Home   Weather   Kigali   Past weeks

Flag for Rwanda Past Weather in Kigali, Rwanda — Yesterday and Last 2 Weeks

Now
61 °F

Passing clouds.


Feels Like: 61 °F
Forecast: 58 / 79 °F
Wind: 3 mph from North

Location: Kigali Airport

Current Time: May 25, 2017 at 5:24:15 am

Latest Report: May 25, 2017 at 4:30 am


Visibility: N/A

Pressure: 30.12 "Hg (25.06 "Hg at 1555m altitude)

Humidity: 94%

Dew Point: 59 °F

Location of KigaliLocation

Past Weather in Kigali — Graph

°F

Kigali Temperature Yesterday

Maximum temperature yesterday: 79 °F (at 2:30 pm)
Minimum temperature yesterday: 61 °F (at 3:00 am)
Average temperature yesterday: 69 °F

High & Low Weather Summary for the Past Weeks

 TemperatureHumidityPressure
High81 °F (May 17, 1:30 pm)100% (May 10, 5:00 am)30.30 "Hg (May 10, 5:00 am)
Low61 °F (May 10, 3:00 am)41% (May 15, 8:00 am)30.04 "Hg (May 13, 4:30 pm)
Average69 °F76%30.15 "Hg
* Reported May 10 3:00 am — May 25 3:30 am, Kigali. Weather by CustomWeather, © 2017

Note: Actual official high and low records may vary slightly from our data, if they occured in-between our weather recording intervals... More about our weather records

Advertising

Kigali Weather History for the Previous 24 Hours

Scroll right to see more
 ConditionsComfort  
Time TempWeatherWind HumidityBarometerVisibility
3:30 am
Thu, May 25
63 °FPassing clouds.2 mph88%30.12 "HgN/A
2:30 am63 °FPassing clouds.5 mph88%30.09 "HgN/A
1:30 am63 °FPassing clouds.7 mph83%30.12 "HgN/A
1:00 am64 °FPassing clouds.6 mph83%30.12 "HgN/A
12:30 am64 °FPassing clouds.6 mph83%30.12 "HgN/A
11:30 pm
Wed, May 24
64 °FPassing clouds.5 mph83%30.12 "HgN/A
10:30 pm66 °FPassing clouds.5 mph83%30.15 "HgN/A
9:30 pm70 °FPassing clouds.2 mph69%30.12 "HgN/A
9:00 pm72 °FPassing clouds.No wind65%30.12 "HgN/A
8:00 pm73 °FPassing clouds.No wind57%30.12 "HgN/A
7:30 pm73 °FPassing clouds.No wind61%30.09 "HgN/A
7:00 pm73 °FPassing clouds.No wind61%30.09 "HgN/A
6:30 pm73 °FPassing clouds.2 mph61%30.09 "HgN/A
6:00 pm75 °FPassing clouds.5 mph57%30.09 "HgN/A
5:30 pm75 °FScattered clouds.6 mph57%30.09 "HgN/A
5:00 pm77 °FScattered clouds.3 mph54%30.09 "HgN/A
4:30 pm77 °FScattered clouds.7 mph54%30.09 "HgN/A
4:00 pm79 °FScattered clouds.2 mph51%30.09 "HgN/A
3:30 pm77 °FScattered clouds.5 mph54%30.09 "HgN/A
3:00 pm77 °FScattered clouds.6 mph54%30.09 "HgN/A
2:30 pm79 °FScattered clouds.3 mph48%30.12 "HgN/A
2:00 pm77 °FScattered clouds.6 mph51%30.12 "HgN/A
1:30 pm77 °FPartly sunny.8 mph54%30.15 "HgN/A
1:00 pm77 °FPartly sunny.6 mph57%30.15 "HgN/A
12:30 pm75 °FPartly sunny.5 mph57%30.18 "HgN/A
12:00 pm73 °FPartly sunny.8 mph61%30.21 "HgN/A
11:30 am72 °FPartly sunny.6 mph65%30.21 "HgN/A
11:00 am72 °FBroken clouds.8 mph69%30.24 "HgN/A
10:00 am70 °FBroken clouds.6 mph69%30.27 "HgN/A
9:30 am68 °FBroken clouds.8 mph73%30.27 "HgN/A
8:30 am66 °FBroken clouds.5 mph83%30.24 "HgN/A
8:00 am64 °FBroken clouds.No wind88%30.24 "HgN/A
7:30 am63 °FBroken clouds.No wind94%30.24 "HgN/A
7:00 am61 °FBroken clouds.3 mph100%30.21 "Hg5 mi
6:30 am61 °FScattered clouds.No wind100%30.21 "Hg6 mi
6:00 am63 °FScattered clouds.3 mph94%30.21 "HgN/A
5:30 am63 °FPartly cloudy.No wind88%30.18 "HgN/A
5:00 am61 °FPassing clouds.No wind94%30.18 "HgN/A
Weather by CustomWeather, © 2017

See weather overviewHow to use our weather pages